COSMOS 2499 DEB, 55720

Orbit data source: Space-Track

COSMOS 2499 DEB, 55720 is space debris in LEO originally from a launch on Fri, 23 May 2014 UTC launched from the Plesetsk Missile And Space Complex (PKMTR). Debris objects in space refer to the collection of defunct objects orbiting the Earth. Examples of debris include non-operational satellites, rocket bodies, and fragments generated from explosions, collisions, or faulty payload assembly.

Loading next visibility...
Identifier
55720, 2014-028AG
Orbit
LEO
Country
Flag of CISCIS
Related business
Manufacturer
TsNIIKhM
Mission
Spacecraft
Bus & Motor
Unknown
Mass
Unknown
Launch date (UTC)
2014-05-23 (12 years ago)
Launch vehicle
Unknown
Launch site
Plesetsk Missile And Space Complex (PKMTR)
Object type
Payload
Rocket body
Debris
Shape & HBR
Unknown shape, 0.1 m
Radar Cross Section
Small (<0.1 m²)

Expand to show TLE details & history
Last TLE update: 3 days ago

TLE from 3 days ago
0 COSMOS 2499 DEB
1 55720U 14028AG  25346.84193972  .00004009  00000-0  16574-1 0  9994
2 55720  82.5066  36.7576 0179066  90.0113 272.1507 12.79373818135041
Epoch: 2025-12-12T20:12Z
TLE epoch observation values (Epoch: 2025-12-12T20:12:23.591Z)
Latitude
0.00003°
Longitude
11.88154°
Altitude
1,344.027 km
Speed
7.187 km/s
True Right ascension
02h 27m 01s
True Declination
0° 00' 00"
Sunlit
Object was in full shadow at epoch
Visualization orbit readout
Latitude
Unknown
Longitude
Unknown
Altitude
Unknown
Speed
Unknown
Apparent Right ascension
Unknown
Apparent Declination
Unknown
Sunlit
N/A
Visualization observer readout
Local Sidereal Time
03:22:57
Azimuth
Unknown
Elevation
Unknown
Doppler factor
Unknown
Orbital elements
Apogee altitude
1,479.515 km
Perigee altitude
1,203.058 km
Semi-major axis
7,719.424 km
Eccentricity
0.01791
Inclination
82.5066°
RAAN
36.7576°
Arg. of periapsis
90.0113°
True anomaly
270.09892°
Mean anomaly
272.1507°
Eccentric anomaly
271.12493°
Mean motion
3.20012 °/min
Orbital period
112.5 mins
BSTAR
0.016574
Loading maneuver chart data...
Computing Atmospheric mass density...
Loading historical data...
Loading historical data...
Loading historical data...
Loading historical data...
Loading historical data...
Loading historical data...
Loading historical data...

Documentation

Showing up to 5 results
|